Погода в Стехнах

Россия / Псковская область     57°07′28″N   28°01′40″E
темп.,
°C
ветер,
м/с
пор.,
м/с
влажн.,
%
обл.,
%
осадки,
мм/ч
давл.,
гПа
погр.,
м
9 марта, вт
вт900:00−10ссз379046 0.0 1018211
03:00−11ссз249224 0.0 1019121
06:00−12сз239415 0.0 102063
09:00−10зсз249031 0.0 1021146
12:00−6з227276 0.0 1021421
15:00−4юз346585 0.0 1020910
18:00−5юз4791100 0.4 1020517
21:00−4юз41083100 0.4 1020529
10 марта, ср
ср1000:00−3зюз51281100 0.0 1019588
03:00−4з41086100 0.1 1020466
06:00−6св3495100 1.5 1020212
09:00−9в5992100 2.4 1022348
12:00−8в5990100 0.8 1023511
15:00−6в6984100 1.1 1024631
18:00−7в5988100 0.1 1024593
21:00−9вюв51193100 0.8 1026540
11 марта, чт
чт1100:00−9вюв5992100 0.5 1026495
03:00−10юв4890100 0.7 1026406
06:00−11юв4891100 0.0 1026339
09:00−10ююв489097 0.0 1026328
12:00−5ююв487947 0.0 1025467
15:00−2ю586723 0.0 1023968
18:00−3ююв5107449 0.0 1020688
21:00−5ююв6148346 0.0 1019605
12 марта, пт
пт1200:00−5ююв71585100 0.0 1017794
03:00−5ююв71484100 0.1 1014910
06:00−5ююв71580100 0.0 1011925
09:00−5ююв81585100 0.1 1008878
12:00−4ююв81489100 0.9 10061019
15:00−2ююв71287100 1.3 1005965
18:00−1ю51195100 0.7 1004669
21:00−2ю4995100 0.9 1004402
13 марта, сб
сб1300:00−1ю4897100 0.3 1005279
03:000юз389593 0.3 1005234
06:00+1юз4109296 0.0 1005489
09:000юз599295 0.0 1006522
12:00+3ююз5109195 0.0 1006665
15:00+3ю5109078 0.0 1005657
18:00+3ю61386100 0.0 1004701
21:00+2юз41098100 0.9 1004468